DAL6606 KATL-VABB

Flight info

Callsign DAL6606
Flight time N/A
Altitude 35000
Route PLMMR3 BURGG Q22 FOXWD Q439 BEEKN Q480 ENE Q822 ALLEX N503B ALLRY/M085F370 DCT 51N050W 53N040W 54N030W 55N020W DCT RESNO/N0486F370 DCT NETKI DCT MOLAK/N0480F390 DCT BAMLI DCT BELOX L603 BUKUT DCT LAMSO DCT SONEB L620 PIKIB T620 LALUK DCT LABUK DCT PITOK DCT EBILO DCT LAPKA DCT DINRO N743 UDROS/N0485F410 UM859 KARDE UN644 ROLIN N644 LAGAS M747 SULEL N449 DUKAN B449 RANAH L750 ZB G202 HILAL/N0497F390 G202 RK P628 VIKIT/N0491F410 Z8 AAE/N0485F430 R458 BVR/N0489F410 R458 BOFIN POKON2A
Aircraft A359/H-SDE2E3GHIJ3J4J5LM1ORWXY/LB1D1

Departure

Time N/A
Airport Hartsfield Jackson Atlanta International Airport (KATL)

Arrival

Time 2026-04-30 15:16
Airport Chhatrapati Shivaji Maharaj International Airport (VABB)
Time Latitude Longitude Altitude Speed Heading
2026-04-30 14:06 26.85348 71.98961 38611 ft 529 kts 180°
2026-04-30 14:07 26.73176 72.00351 38620 ft 528 kts 180°
2026-04-30 14:08 26.63439 72.01461 38620 ft 528 kts 180°
2026-04-30 14:08 26.52476 72.02709 38621 ft 528 kts 179°
2026-04-30 14:09 26.45170 72.03539 38621 ft 527 kts 179°
2026-04-30 14:10 26.34220 72.04781 38628 ft 527 kts 179°
2026-04-30 14:10 26.26970 72.05602 38630 ft 527 kts 179°
2026-04-30 14:11 26.19663 72.06429 38627 ft 527 kts 179°
2026-04-30 14:11 26.12370 72.07253 38631 ft 527 kts 179°
2026-04-30 14:12 26.05065 72.08078 38629 ft 527 kts 179°
2026-04-30 14:12 25.97821 72.08893 38629 ft 527 kts 179°
2026-04-30 14:13 25.90535 72.09714 38631 ft 526 kts 179°
2026-04-30 14:13 25.83256 72.10532 38636 ft 526 kts 179°
2026-04-30 14:14 25.75972 72.11350 38636 ft 526 kts 179°
2026-04-30 14:14 25.68695 72.12166 38644 ft 525 kts 179°
2026-04-30 14:15 25.61477 72.12992 38655 ft 525 kts 179°
2026-04-30 14:15 25.54208 72.13825 38655 ft 525 kts 179°
2026-04-30 14:16 25.46947 72.14655 38659 ft 525 kts 179°
2026-04-30 14:16 25.39687 72.15484 38660 ft 525 kts 179°
2026-04-30 14:17 25.32427 72.16312 38669 ft 525 kts 179°
2026-04-30 14:17 25.25211 72.17134 38678 ft 525 kts 179°
2026-04-30 14:18 25.17954 72.17960 38678 ft 525 kts 179°
2026-04-30 14:18 25.07082 72.19196 38686 ft 522 kts 178°
2026-04-30 14:19 24.96263 72.20835 38697 ft 525 kts 173°
2026-04-30 14:20 24.89141 72.22379 38701 ft 525 kts 172°
2026-04-30 14:20 24.78606 72.24739 38710 ft 523 kts 172°
2026-04-30 14:21 24.71476 72.26340 38721 ft 524 kts 172°
2026-04-30 14:22 24.60776 72.28726 38724 ft 526 kts 172°
2026-04-30 14:22 24.50026 72.31121 38722 ft 525 kts 172°
2026-04-30 14:23 24.35720 72.34302 38722 ft 524 kts 172°
2026-04-30 14:24 24.25050 72.36669 38719 ft 524 kts 172°
2026-04-30 14:25 24.10755 72.39834 38727 ft 524 kts 172°
2026-04-30 14:26 24.00039 72.42207 38729 ft 524 kts 172°
2026-04-30 14:27 23.89390 72.44586 38722 ft 522 kts 172°
2026-04-30 14:27 23.82269 72.46174 38721 ft 522 kts 172°
2026-04-30 14:28 23.71593 72.48550 38718 ft 522 kts 172°
2026-04-30 14:28 23.64479 72.50131 38718 ft 521 kts 172°
2026-04-30 14:29 23.50339 72.53270 38719 ft 520 kts 172°
2026-04-30 14:31 23.32620 72.57192 38732 ft 518 kts 171°
2026-04-30 14:31 23.22087 72.59519 38729 ft 517 kts 171°
2026-04-30 14:32 23.11493 72.61803 38716 ft 518 kts 175°
2026-04-30 14:33 23.04374 72.61776 38723 ft 509 kts 194°
2026-04-30 14:33 22.94214 72.58741 38721 ft 503 kts 201°
2026-04-30 14:34 22.87602 72.56459 38726 ft 501 kts 201°
2026-04-30 14:34 22.80955 72.54176 38730 ft 501 kts 201°
2026-04-30 14:35 22.74057 72.52867 38729 ft 509 kts 184°
2026-04-30 14:35 22.70508 72.52927 38730 ft 511 kts 181°
2026-04-30 14:36 22.63393 72.53277 38740 ft 512 kts 180°
2026-04-30 14:36 22.56338 72.53423 38739 ft 510 kts 186°
2026-04-30 14:37 22.49292 72.52799 38735 ft 507 kts 190°
2026-04-30 14:37 22.42306 72.51793 38736 ft 507 kts 192°
2026-04-30 14:38 22.35322 72.50663 38734 ft 508 kts 192°
2026-04-30 14:38 22.28332 72.49495 38735 ft 508 kts 193°
2026-04-30 14:39 22.21391 72.48326 38740 ft 508 kts 193°
2026-04-30 14:39 22.14410 72.47147 38738 ft 508 kts 193°
2026-04-30 14:40 22.03927 72.45377 38744 ft 509 kts 192°
2026-04-30 14:40 21.96932 72.44197 38744 ft 509 kts 192°
2026-04-30 14:41 21.89939 72.43019 38748 ft 509 kts 192°
2026-04-30 14:41 21.82944 72.41842 38754 ft 509 kts 192°
2026-04-30 14:42 21.76012 72.40677 38753 ft 505 kts 192°
2026-04-30 14:42 21.69080 72.39512 38763 ft 504 kts 192°
2026-04-30 14:43 21.62160 72.38350 38771 ft 503 kts 191°
2026-04-30 14:43 21.55239 72.37190 38772 ft 503 kts 191°
2026-04-30 14:44 21.48319 72.36031 38782 ft 504 kts 192°
2026-04-30 14:44 21.41427 72.34877 38782 ft 505 kts 192°
2026-04-30 14:45 21.34482 72.33716 38788 ft 505 kts 192°
2026-04-30 14:45 21.27538 72.32557 38788 ft 505 kts 192°
2026-04-30 14:46 21.20585 72.31397 38798 ft 505 kts 192°
2026-04-30 14:46 21.13631 72.30237 38798 ft 505 kts 192°
2026-04-30 14:47 21.06684 72.29080 38804 ft 505 kts 192°
2026-04-30 14:47 20.99779 72.27932 38805 ft 505 kts 192°
2026-04-30 14:48 20.92828 72.26776 38805 ft 505 kts 192°
2026-04-30 14:48 20.85884 72.25623 38674 ft 505 kts 192°
2026-04-30 14:49 20.82408 72.25046 38446 ft 505 kts 192°
2026-04-30 14:49 20.78933 72.24469 38185 ft 505 kts 192°
2026-04-30 14:49 20.75461 72.23893 37918 ft 506 kts 192°
2026-04-30 14:49 20.71977 72.23316 37666 ft 507 kts 192°
2026-04-30 14:50 20.65000 72.22160 37167 ft 508 kts 192°
2026-04-30 14:50 20.61554 72.21590 36916 ft 509 kts 192°
2026-04-30 14:51 20.54599 72.20441 35776 ft 504 kts 191°
2026-04-30 14:51 20.51133 72.19868 35086 ft 504 kts 191°
2026-04-30 14:51 20.44176 72.18718 33561 ft 509 kts 191°
2026-04-30 14:52 20.40669 72.18139 32698 ft 511 kts 191°
2026-04-30 14:52 20.33610 72.16975 31010 ft 516 kts 191°
2026-04-30 14:52 20.30097 72.16396 30139 ft 520 kts 191°
2026-04-30 14:53 20.22928 72.15216 28478 ft 520 kts 191°
2026-04-30 14:53 20.19367 72.14630 27800 ft 516 kts 191°
2026-04-30 14:54 20.12318 72.13472 26512 ft 509 kts 191°
2026-04-30 14:54 20.05346 72.12327 25188 ft 504 kts 191°
2026-04-30 14:55 19.98477 72.11200 24306 ft 489 kts 191°
2026-04-30 14:55 19.95161 72.10659 24162 ft 474 kts 191°
2026-04-30 14:55 19.88855 72.09627 23797 ft 450 kts 192°
2026-04-30 14:56 19.82694 72.10222 22434 ft 458 kts 158°
2026-04-30 14:56 19.77739 72.14445 21284 ft 461 kts 127°
2026-04-30 14:57 19.75757 72.17109 20822 ft 457 kts 126°
2026-04-30 14:57 19.71874 72.22383 19977 ft 449 kts 126°
2026-04-30 14:58 19.68054 72.27571 19119 ft 443 kts 127°
2026-04-30 14:58 19.66161 72.30142 18707 ft 441 kts 127°
2026-04-30 14:58 19.62434 72.35202 17828 ft 434 kts 127°
2026-04-30 14:59 19.58744 72.40212 16964 ft 428 kts 127°
2026-04-30 15:00 19.53348 72.47535 15713 ft 416 kts 127°
2026-04-30 15:00 19.49797 72.52352 14892 ft 412 kts 128°
2026-04-30 15:01 19.46289 72.57111 14044 ft 407 kts 128°
2026-04-30 15:01 19.45140 72.58670 13776 ft 405 kts 128°
2026-04-30 15:01 19.41047 72.64220 12670 ft 408 kts 128°
2026-04-30 15:02 19.39320 72.66561 12185 ft 400 kts 128°
2026-04-30 15:02 19.37637 72.68844 11697 ft 382 kts 128°
2026-04-30 15:03 19.33171 72.75030 10273 ft 328 kts 121°
2026-04-30 15:03 19.31888 72.79417 9369 ft 304 kts 101°
2026-04-30 15:04 19.30844 72.83784 8684 ft 303 kts 105°
2026-04-30 15:04 19.29024 72.90097 7682 ft 298 kts 109°
2026-04-30 15:05 19.26978 72.96361 6367 ft 299 kts 109°
2026-04-30 15:06 19.25650 73.00378 5388 ft 281 kts 109°
2026-04-30 15:06 19.24385 73.04141 4447 ft 266 kts 111°
2026-04-30 15:07 19.21897 73.06691 3706 ft 242 kts 158°
2026-04-30 15:07 19.18826 73.08079 3806 ft 239 kts 160°
2026-04-30 15:08 19.15811 73.09403 3803 ft 220 kts 160°
2026-04-30 15:08 19.11749 73.11166 3072 ft 209 kts 160°
2026-04-30 15:09 19.09333 73.10395 2917 ft 190 kts 245°
2026-04-30 15:09 19.09165 73.07950 2888 ft 150 kts 272°
2026-04-30 15:10 19.09145 73.05922 2901 ft 137 kts 270°
2026-04-30 15:11 19.09080 73.01849 2569 ft 138 kts 269°
2026-04-30 15:11 19.09052 72.99848 2216 ft 136 kts 269°
2026-04-30 15:12 19.09010 72.96848 1674 ft 135 kts 269°
2026-04-30 15:13 19.08984 72.94863 1342 ft 135 kts 266°
2026-04-30 15:14 19.08929 72.90935 673 ft 132 kts 267°
2026-04-30 15:14 19.08889 72.87987 158 ft 134 kts 267°
2026-04-30 15:16 19.08932 72.85271 50 ft 0 kts 300°
2026-04-30 15:17 19.08933 72.85268 50 ft 1 kts 300°
2026-04-30 15:18 19.09023 72.85360 51 ft 14 kts 89°
2026-04-30 15:19 19.09029 72.85728 55 ft 19 kts 89°